South Bend, IN

9:54 PM EDT on April 26, 2018 (GMT -0400)
South Bend Regional

Weather History for KSBN - February, 2015

Change the Weather History Date:

Tuesday, February 10, 2015

  Actual Average Record
Temperature  
Mean Temperature 18 °F 26 °F  
Max Temperature 29 °F 34 °F 62 °F (2009)
Min Temperature 6 °F 19 °F -20 °F (1899)
Degree Days  
Heating Degree Days 47 39  
Month to date heating degree days 432 395  
Since 1 July heating degree days 4160 4043  
Cooling Degree Days 0 0  
Month to date cooling degree days 0 0  
Year to date cooling degree days 0 0  
Moisture  
Dew Point 10 °F    
Average Humidity 71    
Maximum Humidity 88    
Minimum Humidity 53    
Precipitation  
Precipitation 0.00 in 0.07 in 1.03 in (1960)
Month to date precipitation 1.30 0.63  
Year to date precipitation 3.22 2.92  
Snow  
Snow 0.00 in 0.50 in 6.60 in (2016)
Month to date snowfall 18.8 6.1  
Since 1 July snowfall 60.4 49.2  
Snow Depth 0.00 in    
Sea Level Pressure  
Sea Level Pressure 30.24 in    
Wind  
Wind Speed 7 mph (ESE)    
Max Wind Speed 23 mph    
Max Gust Speed 29 mph    
Visibility 9 miles    
Events      
T = Trace of Precipitation, MM = Missing Value Source: NWS Daily Summary

Daily Weather History Graph

Daily Weather History Graph

Search for Another Location

Airport or City:

Astronomy

Feb. 10, 2015 Rise Set
Actual Time 7:47 AM EST 6:12 PM EST
Civil Twilight 7:18 AM EST 6:40 PM EST
Nautical Twilight 6:45 AM EST 7:13 PM EST
Astronomical Twilight 6:13 AM EST 7:46 PM EST
Moon No Moon Rise 10:54 AM EST (2/10)
Length of Visible Light 11h 22m
Length of Day
10h 24m
Waning Gibbous, 64% of the Moon is Illuminated
Feb 10
Waning Gibbous
Feb 11
Last Quarter
Feb 18
New
Feb 25
First Quarter
Mar 5
Full

Hourly Weather History & Observations

Time (EST) Temp. Windchill Dew Point Humidity Pressure Visibility Wind Dir Wind Speed Gust Speed Precip Events Conditions
12:54 AM 10.9 °F - 7.0 °F 84% 30.26 in 9.0 mi Calm Calm - N/A   Clear
1:54 AM 12.0 °F 4.1 °F 7.0 °F 80% 30.27 in 9.0 mi North 4.6 mph - N/A   Clear
2:54 AM 10.9 °F - 6.1 °F 81% 30.27 in 9.0 mi Calm Calm - N/A   Clear
3:54 AM 9.0 °F - 3.9 °F 80% 30.28 in 9.0 mi Calm Calm - N/A   Clear
4:54 AM 10.9 °F - 7.0 °F 84% 30.26 in 6.0 mi Calm Calm - N/A   Clear
5:54 AM 8.1 °F 1.4 °F 3.0 °F 80% 30.29 in 8.0 mi NNE 3.5 mph - N/A   Clear
6:54 AM 7.0 °F 0.1 °F 3.0 °F 84% 30.30 in 8.0 mi North 3.5 mph - N/A   Clear
7:54 AM 9.0 °F 0.6 °F 5.0 °F 84% 30.32 in 7.0 mi ENE 4.6 mph - N/A   Clear
8:54 AM 15.1 °F 6.4 °F 10.0 °F 80% 30.32 in 10.0 mi East 5.8 mph - N/A   Clear
9:54 AM 18.0 °F 6.9 °F 10.9 °F 74% 30.30 in 10.0 mi East 9.2 mph - N/A   Clear
10:54 AM 21.0 °F 14.6 °F 12.0 °F 68% 30.30 in 10.0 mi East 4.6 mph - N/A   Clear
11:54 AM 24.1 °F 19.7 °F 12.9 °F 62% 30.29 in 10.0 mi SE 3.5 mph - N/A   Clear
12:54 PM 24.1 °F 19.7 °F 12.0 °F 60% 30.28 in 10.0 mi South 3.5 mph - N/A   Clear
1:54 PM - - - N/A% 30.22 in - North - - N/A   Unknown
2:54 PM - - - N/A% 30.19 in - North - - N/A   Unknown
3:54 PM 28.0 °F 20.8 °F 15.1 °F 58% 30.22 in - SE 6.9 mph - N/A   Clear
4:54 PM 28.0 °F 18.6 °F 14.0 °F 56% 30.21 in 10.0 mi SE 10.4 mph - N/A   Clear
5:54 PM 27.0 °F 18.0 °F 15.1 °F 61% 30.20 in 10.0 mi SE 9.2 mph - N/A   Clear
6:54 PM 25.0 °F 18.1 °F 14.0 °F 63% 30.22 in 10.0 mi SE 5.8 mph - N/A   Clear
7:54 PM 25.0 °F 16.3 °F 15.1 °F 66% 30.19 in 10.0 mi ESE 8.1 mph - N/A   Clear
8:54 PM 24.1 °F 17.0 °F 14.0 °F 65% 30.20 in 10.0 mi SSE 5.8 mph - N/A   Clear
9:54 PM 24.1 °F 12.5 °F 14.0 °F 65% 30.18 in 10.0 mi SE 12.7 mph - N/A   Clear
10:54 PM 23.0 °F 7.2 °F 15.1 °F 72% 30.12 in 10.0 mi SSE 23.0 mph - N/A   Overcast
11:54 PM 21.9 °F 6.9 °F 16.0 °F 78% 30.10 in 10.0 mi SSE 19.6 mph 24.2 mph N/A   Overcast